Year,Month,Day,Hour,Minute,Value (Times are PST for temperature in C)
2010,05,05,00,00,3.30
2010,05,05,00,01,3.30
2010,05,05,00,02,3.30
2010,05,05,00,03,3.30
2010,05,05,00,04,3.30
2010,05,05,00,05,3.30
2010,05,05,00,06,3.30
2010,05,05,00,07,3.30
2010,05,05,00,08,3.30
2010,05,05,00,09,3.20
2010,05,05,00,10,3.20
2010,05,05,00,11,3.20
2010,05,05,00,12,3.20
2010,05,05,00,13,3.20
2010,05,05,00,14,3.20
2010,05,05,00,15,3.20
2010,05,05,00,16,3.20
2010,05,05,00,17,3.20
2010,05,05,00,18,3.20
2010,05,05,00,19,3.10
2010,05,05,00,20,3.10
2010,05,05,00,21,3.10
2010,05,05,00,22,3.10
2010,05,05,00,23,3.10
2010,05,05,00,24,3.20
2010,05,05,00,25,3.20
2010,05,05,00,26,3.20
2010,05,05,00,27,3.20
2010,05,05,00,28,3.20
2010,05,05,00,29,3.20
2010,05,05,00,30,3.20
2010,05,05,00,31,3.20
2010,05,05,00,32,3.20
2010,05,05,00,33,3.20
2010,05,05,00,34,3.20
2010,05,05,00,35,3.30
2010,05,05,00,36,3.30
2010,05,05,00,37,3.30
2010,05,05,00,38,3.30
2010,05,05,00,39,3.30
2010,05,05,00,40,3.30
2010,05,05,00,41,3.30
2010,05,05,00,42,3.30
2010,05,05,00,43,3.30
2010,05,05,00,44,3.30
2010,05,05,00,45,3.30
2010,05,05,00,46,3.30
2010,05,05,00,47,3.30
2010,05,05,00,48,3.30
2010,05,05,00,49,3.30
2010,05,05,00,50,3.30
2010,05,05,00,51,3.30
2010,05,05,00,52,3.30
2010,05,05,00,53,3.30
2010,05,05,00,54,3.30
2010,05,05,00,55,3.30
2010,05,05,00,56,3.30
2010,05,05,00,57,3.20
2010,05,05,00,58,3.20
2010,05,05,00,59,3.20
2010,05,05,01,00,3.20
2010,05,05,01,01,3.20
2010,05,05,01,02,3.20
2010,05,05,01,03,3.10
2010,05,05,01,04,3.10
2010,05,05,01,05,3.10
2010,05,05,01,06,3.10
2010,05,05,01,07,3.10
2010,05,05,01,08,3.10
2010,05,05,01,09,3.10
2010,05,05,01,10,3.10
2010,05,05,01,11,3.10
2010,05,05,01,12,3.10
2010,05,05,01,13,3.10
2010,05,05,01,14,3.10
2010,05,05,01,15,3.10
2010,05,05,01,16,3.10
2010,05,05,01,17,3.10
2010,05,05,01,18,3.10
2010,05,05,01,19,3.10
2010,05,05,01,20,3.10
2010,05,05,01,21,3.10
2010,05,05,01,22,3.10
2010,05,05,01,23,3.10
2010,05,05,01,24,3.10
2010,05,05,01,25,3.10
2010,05,05,01,26,3.10
2010,05,05,01,27,3.10
2010,05,05,01,28,3.10
2010,05,05,01,29,3.10
2010,05,05,01,30,3.10
2010,05,05,01,31,3.10
2010,05,05,01,32,3.10
2010,05,05,01,33,3.10
2010,05,05,01,34,3.10
2010,05,05,01,35,3.10
2010,05,05,01,36,3.10
2010,05,05,01,37,3.10
2010,05,05,01,38,3.10
2010,05,05,01,39,3.10
2010,05,05,01,40,3.00
2010,05,05,01,41,2.90
2010,05,05,01,42,2.90
2010,05,05,01,43,2.90
2010,05,05,01,44,2.90
2010,05,05,01,45,2.90
2010,05,05,01,46,2.90
2010,05,05,01,47,2.90
2010,05,05,01,48,2.90
2010,05,05,01,49,2.90
2010,05,05,01,50,2.80
2010,05,05,01,51,2.80
2010,05,05,01,52,2.80
2010,05,05,01,53,2.80
2010,05,05,01,54,2.80
2010,05,05,01,55,2.70
2010,05,05,01,56,2.70
2010,05,05,01,57,2.70
2010,05,05,01,58,2.70
2010,05,05,01,59,2.70
2010,05,05,02,00,2.70
2010,05,05,02,01,2.70
2010,05,05,02,02,2.70
2010,05,05,02,03,2.70
2010,05,05,02,04,2.70
2010,05,05,02,05,2.70
2010,05,05,02,06,2.70
2010,05,05,02,07,2.70
2010,05,05,02,08,2.70
2010,05,05,02,09,2.70
2010,05,05,02,10,2.70
2010,05,05,02,11,2.70
2010,05,05,02,12,2.70
2010,05,05,02,13,2.70
2010,05,05,02,14,2.70
2010,05,05,02,15,2.70
2010,05,05,02,16,2.60
2010,05,05,02,17,2.60
2010,05,05,02,18,2.60
2010,05,05,02,19,2.60
2010,05,05,02,20,2.50
2010,05,05,02,21,2.50
2010,05,05,02,22,2.50
2010,05,05,02,23,2.40
2010,05,05,02,24,2.40
2010,05,05,02,25,2.40
2010,05,05,02,26,2.40
2010,05,05,02,27,2.30
2010,05,05,02,28,2.30
2010,05,05,02,29,2.30
2010,05,05,02,30,2.30
2010,05,05,02,31,2.30
2010,05,05,02,32,2.30
2010,05,05,02,33,2.30
2010,05,05,02,34,2.20
2010,05,05,02,35,2.20
2010,05,05,02,36,2.20
2010,05,05,02,37,2.20
2010,05,05,02,38,2.20
2010,05,05,02,39,2.20
2010,05,05,02,40,2.20
2010,05,05,02,41,2.20
2010,05,05,02,42,2.20
2010,05,05,02,43,2.30
2010,05,05,02,44,2.30
2010,05,05,02,45,2.30
2010,05,05,02,46,2.30
2010,05,05,02,47,2.30
2010,05,05,02,48,2.30
2010,05,05,02,49,2.30
2010,05,05,02,50,2.40
2010,05,05,02,51,2.40
2010,05,05,02,52,2.40
2010,05,05,02,53,2.40
2010,05,05,02,54,2.40
2010,05,05,02,55,2.30
2010,05,05,02,56,2.30
2010,05,05,02,57,2.30
2010,05,05,02,58,2.30
2010,05,05,02,59,2.30
2010,05,05,03,00,2.30
2010,05,05,03,01,2.30
2010,05,05,03,02,2.30
2010,05,05,03,03,2.30
2010,05,05,03,04,2.30
2010,05,05,03,05,2.30
2010,05,05,03,06,2.30
2010,05,05,03,07,2.30
2010,05,05,03,08,2.30
2010,05,05,03,09,2.30
2010,05,05,03,10,2.30
2010,05,05,03,11,2.30
2010,05,05,03,12,2.30
2010,05,05,03,13,2.30
2010,05,05,03,14,2.30
2010,05,05,03,15,2.30
2010,05,05,03,16,2.20
2010,05,05,03,17,2.20
2010,05,05,03,18,2.20
2010,05,05,03,19,2.20
2010,05,05,03,20,2.20
2010,05,05,03,21,2.20
2010,05,05,03,22,2.20
2010,05,05,03,23,2.20
2010,05,05,03,24,2.20
2010,05,05,03,25,2.20
2010,05,05,03,26,2.20
2010,05,05,03,27,2.20
2010,05,05,03,28,2.20
2010,05,05,03,29,2.10
2010,05,05,03,30,2.10
2010,05,05,03,31,2.10
2010,05,05,03,32,2.10
2010,05,05,03,33,2.10
2010,05,05,03,34,2.10
2010,05,05,03,35,2.10
2010,05,05,03,36,2.00
2010,05,05,03,37,2.10
2010,05,05,03,38,2.10
2010,05,05,03,39,2.20
2010,05,05,03,40,2.20
2010,05,05,03,41,2.20
2010,05,05,03,42,2.20
2010,05,05,03,43,2.20
2010,05,05,03,44,2.20
2010,05,05,03,45,2.20
2010,05,05,03,46,2.20
2010,05,05,03,47,2.10
2010,05,05,03,48,2.10
2010,05,05,03,49,2.10
2010,05,05,03,50,2.00
2010,05,05,03,51,2.00
2010,05,05,03,52,2.00
2010,05,05,03,53,1.90
2010,05,05,03,54,1.90
2010,05,05,03,55,1.90
2010,05,05,03,56,1.90
2010,05,05,03,57,1.90
2010,05,05,03,58,1.90
2010,05,05,03,59,1.90
2010,05,05,04,00,1.90
2010,05,05,04,01,1.80
2010,05,05,04,02,1.80
2010,05,05,04,03,1.80
2010,05,05,04,04,1.80
2010,05,05,04,05,1.80
2010,05,05,04,06,1.80
2010,05,05,04,07,1.80
2010,05,05,04,08,1.80
2010,05,05,04,09,1.70
2010,05,05,04,10,1.70
2010,05,05,04,11,1.70
2010,05,05,04,12,1.70
2010,05,05,04,13,1.60
2010,05,05,04,14,1.60
2010,05,05,04,15,1.60
2010,05,05,04,16,1.60
2010,05,05,04,17,1.50
2010,05,05,04,18,1.50
2010,05,05,04,19,1.50
2010,05,05,04,20,1.40
2010,05,05,04,21,1.50
2010,05,05,04,22,1.50
2010,05,05,04,23,1.50
2010,05,05,04,24,1.60
2010,05,05,04,25,1.60
2010,05,05,04,26,1.60
2010,05,05,04,27,1.70
2010,05,05,04,28,1.70
2010,05,05,04,29,1.70
2010,05,05,04,30,1.60
2010,05,05,04,31,1.60
2010,05,05,04,32,1.60
2010,05,05,04,33,1.60
2010,05,05,04,34,1.50
2010,05,05,04,35,1.50
2010,05,05,04,36,1.50
2010,05,05,04,37,1.50
2010,05,05,04,38,1.40
2010,05,05,04,39,1.40
2010,05,05,04,40,1.40
2010,05,05,04,41,1.40
2010,05,05,04,42,1.40
2010,05,05,04,43,1.30
2010,05,05,04,44,1.30
2010,05,05,04,45,1.30
2010,05,05,04,46,1.30
2010,05,05,04,47,1.30
2010,05,05,04,48,1.30
2010,05,05,04,49,1.30
2010,05,05,04,50,1.30
2010,05,05,04,51,1.30
2010,05,05,04,52,1.30
2010,05,05,04,53,1.30
2010,05,05,04,54,1.30
2010,05,05,04,55,1.20
2010,05,05,04,56,1.20
2010,05,05,04,57,1.20
2010,05,05,04,58,1.20
2010,05,05,04,59,1.20
2010,05,05,05,00,1.20
2010,05,05,05,01,1.20
2010,05,05,05,02,1.20
2010,05,05,05,03,1.10
2010,05,05,05,04,1.10
2010,05,05,05,05,1.10
2010,05,05,05,06,1.10
2010,05,05,05,07,1.00
2010,05,05,05,08,1.00
2010,05,05,05,09,1.00
2010,05,05,05,10,0.90
2010,05,05,05,11,0.90
2010,05,05,05,12,0.90
2010,05,05,05,13,0.90
2010,05,05,05,14,0.90
2010,05,05,05,15,0.90
2010,05,05,05,16,0.90
2010,05,05,05,17,0.90
2010,05,05,05,18,0.90
2010,05,05,05,19,0.90
2010,05,05,05,20,0.90
2010,05,05,05,21,0.90
2010,05,05,05,22,0.90
2010,05,05,05,23,0.90
2010,05,05,05,24,0.90
2010,05,05,05,25,0.90
2010,05,05,05,26,0.90
2010,05,05,05,27,0.90
2010,05,05,05,28,0.90
2010,05,05,05,29,0.90
2010,05,05,05,30,0.90
2010,05,05,05,31,0.90
2010,05,05,05,32,0.90
2010,05,05,05,33,0.90
2010,05,05,05,34,0.90
2010,05,05,05,35,0.90
2010,05,05,05,36,0.90
2010,05,05,05,37,0.90
2010,05,05,05,38,0.90
2010,05,05,05,39,0.90
2010,05,05,05,40,0.90
2010,05,05,05,41,0.90
2010,05,05,05,42,0.90
2010,05,05,05,43,0.90
2010,05,05,05,44,0.90
2010,05,05,05,45,0.90
2010,05,05,05,46,1.00
2010,05,05,05,47,1.00
2010,05,05,05,48,0.90
2010,05,05,05,49,0.90
2010,05,05,05,50,0.90
2010,05,05,05,51,0.90
2010,05,05,05,52,0.90
2010,05,05,05,53,1.00
2010,05,05,05,54,1.00
2010,05,05,05,55,1.00
2010,05,05,05,56,1.00
2010,05,05,05,57,1.00
2010,05,05,05,58,1.00
2010,05,05,05,59,0.90
2010,05,05,06,00,0.90
2010,05,05,06,01,0.90
2010,05,05,06,02,0.80
2010,05,05,06,03,0.80
2010,05,05,06,04,0.80
2010,05,05,06,05,0.80
2010,05,05,06,06,0.80
2010,05,05,06,07,0.80
2010,05,05,06,08,0.80
2010,05,05,06,09,0.80
2010,05,05,06,10,0.80
2010,05,05,06,11,0.80
2010,05,05,06,12,0.80
2010,05,05,06,13,0.80
2010,05,05,06,14,0.80
2010,05,05,06,15,0.80
2010,05,05,06,16,0.80
2010,05,05,06,17,0.80
2010,05,05,06,18,0.80
2010,05,05,06,19,0.80
2010,05,05,06,20,0.80
2010,05,05,06,21,0.80
2010,05,05,06,22,0.80
2010,05,05,06,23,0.80
2010,05,05,06,24,0.80
2010,05,05,06,25,0.90
2010,05,05,06,26,0.90
2010,05,05,06,27,0.90
2010,05,05,06,28,1.00
2010,05,05,06,29,1.00
2010,05,05,06,30,1.10
2010,05,05,06,31,1.20
2010,05,05,06,32,1.30
2010,05,05,06,33,1.30
2010,05,05,06,34,1.40
2010,05,05,06,35,1.40
2010,05,05,06,36,1.50
2010,05,05,06,37,1.50
2010,05,05,06,38,1.50
2010,05,05,06,39,1.50
2010,05,05,06,40,1.50
2010,05,05,06,41,1.50
2010,05,05,06,42,1.50
2010,05,05,06,43,1.50
2010,05,05,06,44,1.50
2010,05,05,06,45,1.40
2010,05,05,06,46,1.40
2010,05,05,06,47,1.40
2010,05,05,06,48,1.40
2010,05,05,06,49,1.40
2010,05,05,06,50,1.40
2010,05,05,06,51,1.40
2010,05,05,06,52,1.40
2010,05,05,06,53,1.40
2010,05,05,06,54,1.40
2010,05,05,06,55,1.50
2010,05,05,06,56,1.50
2010,05,05,06,57,1.60
2010,05,05,06,58,1.60
2010,05,05,06,59,1.70
2010,05,05,07,00,1.80
2010,05,05,07,01,1.80
2010,05,05,07,02,1.80
2010,05,05,07,03,1.90
2010,05,05,07,04,2.00
2010,05,05,07,05,2.10
2010,05,05,07,06,2.20
2010,05,05,07,07,2.20
2010,05,05,07,08,2.20
2010,05,05,07,09,2.30
2010,05,05,07,10,2.30
2010,05,05,07,11,2.30
2010,05,05,07,12,2.30
2010,05,05,07,13,2.30
2010,05,05,07,14,2.30
2010,05,05,07,15,2.30
2010,05,05,07,16,2.30
2010,05,05,07,17,2.30
2010,05,05,07,18,2.30
2010,05,05,07,19,2.30
2010,05,05,07,20,2.20
2010,05,05,07,21,2.20
2010,05,05,07,22,2.20
2010,05,05,07,23,2.20
2010,05,05,07,24,2.20
2010,05,05,07,25,2.20
2010,05,05,07,26,2.20
2010,05,05,07,27,2.20
2010,05,05,07,28,2.30
2010,05,05,07,29,2.30
2010,05,05,07,30,2.30
2010,05,05,07,31,2.30
2010,05,05,07,32,2.40
2010,05,05,07,33,2.40
2010,05,05,07,34,2.40
2010,05,05,07,35,2.40
2010,05,05,07,36,2.50
2010,05,05,07,37,2.50
2010,05,05,07,38,2.60
2010,05,05,07,39,2.70
2010,05,05,07,40,2.70
2010,05,05,07,41,2.80
2010,05,05,07,42,2.90
2010,05,05,07,43,2.90
2010,05,05,07,44,2.90
2010,05,05,07,45,3.00
2010,05,05,07,46,3.10
2010,05,05,07,47,3.10
2010,05,05,07,48,3.10
2010,05,05,07,49,3.20
2010,05,05,07,50,3.20
2010,05,05,07,51,3.30
2010,05,05,07,52,3.30
2010,05,05,07,53,3.30
2010,05,05,07,54,3.30
2010,05,05,07,55,3.40
2010,05,05,07,56,3.40
2010,05,05,07,57,3.40
2010,05,05,07,58,3.50
2010,05,05,07,59,3.50
2010,05,05,08,00,3.60
2010,05,05,08,01,3.60
2010,05,05,08,02,3.70
2010,05,05,08,03,3.80
2010,05,05,08,04,3.80
2010,05,05,08,05,3.90
2010,05,05,08,06,3.90
2010,05,05,08,07,3.90
2010,05,05,08,08,3.90
2010,05,05,08,09,3.90
2010,05,05,08,10,4.00
2010,05,05,08,11,4.00
2010,05,05,08,12,4.00
2010,05,05,08,13,4.00
2010,05,05,08,14,4.10
2010,05,05,08,15,4.10
2010,05,05,08,16,4.20
2010,05,05,08,17,4.20
2010,05,05,08,18,4.30
2010,05,05,08,19,4.40
2010,05,05,08,20,4.50
2010,05,05,08,21,4.50
2010,05,05,08,22,4.60
2010,05,05,08,23,4.60
2010,05,05,08,24,4.70
2010,05,05,08,25,4.80
2010,05,05,08,26,4.80
2010,05,05,08,27,4.90
2010,05,05,08,28,4.90
2010,05,05,08,29,5.00
2010,05,05,08,30,5.10
2010,05,05,08,31,5.10
2010,05,05,08,32,5.20
2010,05,05,08,33,5.30
2010,05,05,08,34,5.40
2010,05,05,08,35,5.50
2010,05,05,08,36,5.50
2010,05,05,08,37,5.60
2010,05,05,08,38,5.60
2010,05,05,08,39,5.70
2010,05,05,08,40,5.70
2010,05,05,08,41,5.70
2010,05,05,08,42,5.80
2010,05,05,08,43,5.90
2010,05,05,08,44,5.90
2010,05,05,08,45,6.00
2010,05,05,08,46,6.00
2010,05,05,08,47,6.10
2010,05,05,08,48,6.20
2010,05,05,08,49,6.20
2010,05,05,08,50,6.30
2010,05,05,08,51,6.40
2010,05,05,08,52,6.50
2010,05,05,08,53,6.60
2010,05,05,08,54,6.70
2010,05,05,08,55,6.70
2010,05,05,08,56,6.80
2010,05,05,08,57,6.80
2010,05,05,08,58,6.90
2010,05,05,08,59,6.90
2010,05,05,09,00,7.00
2010,05,05,09,01,7.00
2010,05,05,09,02,7.10
2010,05,05,09,03,7.10
2010,05,05,09,04,7.20
2010,05,05,09,05,7.20
2010,05,05,09,06,7.20
2010,05,05,09,07,7.30
2010,05,05,09,08,7.30
2010,05,05,09,09,7.40
2010,05,05,09,10,7.40
2010,05,05,09,11,7.40
2010,05,05,09,12,7.30
2010,05,05,09,13,7.30
2010,05,05,09,14,7.40
2010,05,05,09,15,7.40
2010,05,05,09,16,7.50
2010,05,05,09,17,7.50
2010,05,05,09,18,7.60
2010,05,05,09,19,7.60
2010,05,05,09,20,7.70
2010,05,05,09,21,7.80
2010,05,05,09,22,7.90
2010,05,05,09,23,7.90
2010,05,05,09,24,8.00
2010,05,05,09,25,8.20
2010,05,05,09,26,8.30
2010,05,05,09,27,8.40
2010,05,05,09,28,8.40
2010,05,05,09,29,8.40
2010,05,05,09,30,8.50
2010,05,05,09,31,8.50
2010,05,05,09,32,8.60
2010,05,05,09,33,8.50
2010,05,05,09,34,8.50
2010,05,05,09,35,8.50
2010,05,05,09,36,8.50
2010,05,05,09,37,8.60
2010,05,05,09,38,8.60
2010,05,05,09,39,8.60
2010,05,05,09,40,8.50
2010,05,05,09,41,8.50
2010,05,05,09,42,8.50
2010,05,05,09,43,8.40
2010,05,05,09,44,8.50
2010,05,05,09,45,8.60
2010,05,05,09,46,8.50
2010,05,05,09,47,8.40
2010,05,05,09,48,8.40
2010,05,05,09,49,8.40
2010,05,05,09,50,8.40
2010,05,05,09,51,8.50
2010,05,05,09,52,8.50
2010,05,05,09,53,8.50
2010,05,05,09,54,8.60
2010,05,05,09,55,8.70
2010,05,05,09,56,8.70
2010,05,05,09,57,8.80
2010,05,05,09,58,8.80
2010,05,05,09,59,8.90
2010,05,05,10,00,9.00
2010,05,05,10,01,9.00
2010,05,05,10,02,8.90
2010,05,05,10,03,9.00
2010,05,05,10,04,9.00
2010,05,05,10,05,9.00
2010,05,05,10,06,9.10
2010,05,05,10,07,9.10
2010,05,05,10,08,9.10
2010,05,05,10,09,9.00
2010,05,05,10,10,9.00
2010,05,05,10,11,9.00
2010,05,05,10,12,8.90
2010,05,05,10,13,8.90
2010,05,05,10,14,8.80
2010,05,05,10,15,8.70
2010,05,05,10,16,8.60
2010,05,05,10,17,8.60
2010,05,05,10,18,8.70
2010,05,05,10,19,8.70
2010,05,05,10,20,8.80
2010,05,05,10,21,8.80
2010,05,05,10,22,8.90
2010,05,05,10,23,8.90
2010,05,05,10,24,8.90
2010,05,05,10,25,8.90
2010,05,05,10,26,8.90
2010,05,05,10,27,8.90
2010,05,05,10,28,8.90
2010,05,05,10,29,8.90
2010,05,05,10,30,8.80
2010,05,05,10,31,8.80
2010,05,05,10,32,8.70
2010,05,05,10,33,8.80
2010,05,05,10,34,8.90
2010,05,05,10,35,8.90
2010,05,05,10,36,8.90
2010,05,05,10,37,8.90
2010,05,05,10,38,8.90
2010,05,05,10,39,8.90
2010,05,05,10,40,8.80
2010,05,05,10,41,8.80
2010,05,05,10,42,8.80
2010,05,05,10,43,8.90
2010,05,05,10,44,9.00
2010,05,05,10,45,9.10
2010,05,05,10,46,9.20
2010,05,05,10,47,9.20
2010,05,05,10,48,9.20
2010,05,05,10,49,9.20
2010,05,05,10,50,9.20
2010,05,05,10,51,9.20
2010,05,05,10,52,9.20
2010,05,05,10,53,9.10
2010,05,05,10,54,9.00
2010,05,05,10,55,9.00
2010,05,05,10,56,9.10
2010,05,05,10,57,9.20
2010,05,05,10,58,9.20
2010,05,05,10,59,9.30
2010,05,05,11,00,9.30
2010,05,05,11,01,9.30
2010,05,05,11,02,9.40
2010,05,05,11,03,9.40
2010,05,05,11,04,9.40
2010,05,05,11,05,9.50
2010,05,05,11,06,9.50
2010,05,05,11,07,9.40
2010,05,05,11,08,9.30
2010,05,05,11,09,9.20
2010,05,05,11,10,9.20
2010,05,05,11,11,9.10
2010,05,05,11,12,9.10
2010,05,05,11,13,9.10
2010,05,05,11,14,9.20
2010,05,05,11,15,9.20
2010,05,05,11,16,9.20
2010,05,05,11,17,9.20
2010,05,05,11,18,9.20
2010,05,05,11,19,9.10
2010,05,05,11,20,9.10
2010,05,05,11,21,9.10
2010,05,05,11,22,9.10
2010,05,05,11,23,9.10
2010,05,05,11,24,9.10
2010,05,05,11,25,9.20
2010,05,05,11,26,9.20
2010,05,05,11,27,9.20
2010,05,05,11,28,9.20
2010,05,05,11,29,9.20
2010,05,05,11,30,9.20
2010,05,05,11,31,9.20
2010,05,05,11,32,9.30
2010,05,05,11,33,9.30
2010,05,05,11,34,9.20
2010,05,05,11,35,9.20
2010,05,05,11,36,9.20
2010,05,05,11,37,9.20
2010,05,05,11,38,9.20
2010,05,05,11,39,9.30
2010,05,05,11,40,9.30
2010,05,05,11,41,9.30
2010,05,05,11,42,9.30
2010,05,05,11,43,9.30
2010,05,05,11,44,9.40
2010,05,05,11,45,9.40
2010,05,05,11,46,9.40
2010,05,05,11,47,9.40
2010,05,05,11,48,9.40
2010,05,05,11,49,9.40
2010,05,05,11,50,9.40
2010,05,05,11,51,9.30
2010,05,05,11,52,9.30
2010,05,05,11,53,9.20
2010,05,05,11,54,9.20
2010,05,05,11,55,9.20
2010,05,05,11,56,9.20
2010,05,05,11,57,9.20
2010,05,05,11,58,9.20
2010,05,05,11,59,9.20
2010,05,05,12,00,9.10
2010,05,05,12,01,9.10
2010,05,05,12,02,9.20
2010,05,05,12,03,9.20
2010,05,05,12,04,9.20
2010,05,05,12,05,9.20
2010,05,05,12,06,9.20
2010,05,05,12,07,9.20
2010,05,05,12,08,9.20
2010,05,05,12,09,9.20
2010,05,05,12,10,9.20
2010,05,05,12,11,9.20
2010,05,05,12,12,9.20
2010,05,05,12,13,9.10
2010,05,05,12,14,9.10
2010,05,05,12,15,9.10
2010,05,05,12,16,9.20
2010,05,05,12,17,9.20
2010,05,05,12,18,9.20
2010,05,05,12,19,9.30
2010,05,05,12,20,9.30
2010,05,05,12,21,9.30
2010,05,05,12,22,9.30
2010,05,05,12,23,9.40
2010,05,05,12,24,9.50
2010,05,05,12,25,9.50
2010,05,05,12,26,9.50
2010,05,05,12,27,9.40
2010,05,05,12,28,9.50
2010,05,05,12,29,9.50
2010,05,05,12,30,9.50
2010,05,05,12,31,9.40
2010,05,05,12,32,9.40
2010,05,05,12,33,9.40
2010,05,05,12,34,9.50
2010,05,05,12,35,9.50
2010,05,05,12,36,9.50
2010,05,05,12,37,9.50
2010,05,05,12,38,9.50
2010,05,05,12,39,9.50
2010,05,05,12,40,9.50
2010,05,05,12,41,9.50
2010,05,05,12,42,9.50
2010,05,05,12,43,9.50
2010,05,05,12,44,9.60
2010,05,05,12,45,9.70
2010,05,05,12,46,9.70
2010,05,05,12,47,9.70
2010,05,05,12,48,9.80
2010,05,05,12,49,9.80
2010,05,05,12,50,9.80
2010,05,05,12,51,9.90
2010,05,05,12,52,9.90
2010,05,05,12,53,9.90
2010,05,05,12,54,9.90
2010,05,05,12,55,9.90
2010,05,05,12,56,9.90
2010,05,05,12,57,9.90
2010,05,05,12,58,9.90
2010,05,05,12,59,9.90
2010,05,05,13,00,9.90
2010,05,05,13,01,9.80
2010,05,05,13,02,9.90
2010,05,05,13,03,9.90
2010,05,05,13,04,9.90
2010,05,05,13,05,9.90
2010,05,05,13,06,9.90
2010,05,05,13,07,10.00
2010,05,05,13,08,10.10
2010,05,05,13,09,10.10
2010,05,05,13,10,10.10
2010,05,05,13,11,10.10
2010,05,05,13,12,10.10
2010,05,05,13,13,10.10
2010,05,05,13,14,10.10
2010,05,05,13,15,10.10
2010,05,05,13,16,10.10
2010,05,05,13,17,10.10
2010,05,05,13,18,10.10
2010,05,05,13,19,10.10
2010,05,05,13,20,10.10
2010,05,05,13,21,10.10
2010,05,05,13,22,10.10
2010,05,05,13,23,10.10
2010,05,05,13,24,10.10
2010,05,05,13,25,10.20
2010,05,05,13,26,10.30
2010,05,05,13,27,10.40
2010,05,05,13,28,10.40
2010,05,05,13,29,10.60
2010,05,05,13,30,10.60
2010,05,05,13,31,10.70
2010,05,05,13,32,10.90
2010,05,05,13,33,11.00
2010,05,05,13,34,11.10
2010,05,05,13,35,11.20
2010,05,05,13,36,11.30
2010,05,05,13,37,11.30
2010,05,05,13,38,11.30
2010,05,05,13,39,11.40
2010,05,05,13,40,11.40
2010,05,05,13,41,11.40
2010,05,05,13,42,11.40
2010,05,05,13,43,11.40
2010,05,05,13,44,11.40
2010,05,05,13,45,11.30
2010,05,05,13,46,11.30
2010,05,05,13,47,11.30
2010,05,05,13,48,11.30
2010,05,05,13,49,11.30
2010,05,05,13,50,11.30
2010,05,05,13,51,11.30
2010,05,05,13,52,11.40
2010,05,05,13,53,11.40
2010,05,05,13,54,11.40
2010,05,05,13,55,11.60
2010,05,05,13,56,11.60
2010,05,05,13,57,11.70
2010,05,05,13,58,11.70
2010,05,05,13,59,11.80
2010,05,05,14,00,11.80
2010,05,05,14,01,11.80
2010,05,05,14,02,11.70
2010,05,05,14,03,11.60
2010,05,05,14,04,11.50
2010,05,05,14,05,11.50
2010,05,05,14,06,11.60
2010,05,05,14,07,11.70
2010,05,05,14,08,11.80
2010,05,05,14,09,11.90
2010,05,05,14,10,12.10
2010,05,05,14,11,12.10
2010,05,05,14,12,12.10
2010,05,05,14,13,12.10
2010,05,05,14,14,12.00
2010,05,05,14,15,12.00
2010,05,05,14,16,12.00
2010,05,05,14,17,12.10
2010,05,05,14,18,12.20
2010,05,05,14,19,12.30
2010,05,05,14,20,12.30
2010,05,05,14,21,12.30
2010,05,05,14,22,12.30
2010,05,05,14,23,12.40
2010,05,05,14,24,12.40
2010,05,05,14,25,12.50
2010,05,05,14,26,12.60
2010,05,05,14,27,12.70
2010,05,05,14,28,12.80
2010,05,05,14,29,12.60
2010,05,05,14,30,12.40
2010,05,05,14,31,12.20
2010,05,05,14,32,12.10
2010,05,05,14,33,12.00
2010,05,05,14,34,12.10
2010,05,05,14,35,12.20
2010,05,05,14,36,12.10
2010,05,05,14,37,12.10
2010,05,05,14,38,12.10
2010,05,05,14,39,12.20
2010,05,05,14,40,12.20
2010,05,05,14,41,12.20
2010,05,05,14,42,12.30
2010,05,05,14,43,12.40
2010,05,05,14,44,12.40
2010,05,05,14,45,12.50
2010,05,05,14,46,12.50
2010,05,05,14,47,12.60
2010,05,05,14,48,12.50
2010,05,05,14,49,12.40
2010,05,05,14,50,12.30
2010,05,05,14,51,12.20
2010,05,05,14,52,12.20
2010,05,05,14,53,12.20
2010,05,05,14,54,12.20
2010,05,05,14,55,12.30
2010,05,05,14,56,12.30
2010,05,05,14,57,12.30
2010,05,05,14,58,12.30
2010,05,05,14,59,12.30
2010,05,05,15,00,12.30
2010,05,05,15,01,12.20
2010,05,05,15,02,12.20
2010,05,05,15,03,12.30
2010,05,05,15,04,12.40
2010,05,05,15,05,12.40
2010,05,05,15,06,12.50
2010,05,05,15,07,12.60
2010,05,05,15,08,12.70
2010,05,05,15,09,12.80
2010,05,05,15,10,12.80
2010,05,05,15,11,12.80
2010,05,05,15,12,12.90
2010,05,05,15,13,12.90
2010,05,05,15,14,13.00
2010,05,05,15,15,13.10
2010,05,05,15,16,13.10
2010,05,05,15,17,13.00
2010,05,05,15,18,12.90
2010,05,05,15,19,12.90
2010,05,05,15,20,13.00
2010,05,05,15,21,13.10
2010,05,05,15,22,13.10
2010,05,05,15,23,13.00
2010,05,05,15,24,13.00
2010,05,05,15,25,13.10
2010,05,05,15,26,13.10
2010,05,05,15,27,13.00
2010,05,05,15,28,12.80
2010,05,05,15,29,12.80
2010,05,05,15,30,12.80
2010,05,05,15,31,12.80
2010,05,05,15,32,12.70
2010,05,05,15,33,12.60
2010,05,05,15,34,12.60
2010,05,05,15,35,12.50
2010,05,05,15,36,12.40
2010,05,05,15,37,12.30
2010,05,05,15,38,12.30
2010,05,05,15,39,12.30
2010,05,05,15,40,12.30
2010,05,05,15,41,12.30
2010,05,05,15,42,12.30
2010,05,05,15,43,12.30
2010,05,05,15,44,12.30
2010,05,05,15,45,12.30
2010,05,05,15,46,12.30
2010,05,05,15,47,12.30
2010,05,05,15,48,12.30
2010,05,05,15,49,12.40
2010,05,05,15,50,12.50
2010,05,05,15,51,12.50
2010,05,05,15,52,12.50
2010,05,05,15,53,12.50
2010,05,05,15,54,12.50
2010,05,05,15,55,12.50
2010,05,05,15,56,12.60
2010,05,05,15,57,12.70
2010,05,05,15,58,12.70
2010,05,05,15,59,12.70
2010,05,05,16,00,12.70
2010,05,05,16,01,12.80
2010,05,05,16,02,12.80
2010,05,05,16,03,12.80
2010,05,05,16,04,12.80
2010,05,05,16,05,12.90
2010,05,05,16,06,13.00
2010,05,05,16,07,13.00
2010,05,05,16,08,13.00
2010,05,05,16,09,12.90
2010,05,05,16,10,12.90
2010,05,05,16,11,12.90
2010,05,05,16,12,12.80
2010,05,05,16,13,12.80
2010,05,05,16,14,12.80
2010,05,05,16,15,12.90
2010,05,05,16,16,13.00
2010,05,05,16,17,13.10
2010,05,05,16,18,13.10
2010,05,05,16,19,13.10
2010,05,05,16,20,13.10
2010,05,05,16,21,13.10
2010,05,05,16,22,13.10
2010,05,05,16,23,13.10
2010,05,05,16,24,13.10
2010,05,05,16,25,12.90
2010,05,05,16,26,12.80
2010,05,05,16,27,12.70
2010,05,05,16,28,12.70
2010,05,05,16,29,12.70
2010,05,05,16,30,12.70
2010,05,05,16,31,12.60
2010,05,05,16,32,12.40
2010,05,05,16,33,12.30
2010,05,05,16,34,12.30
2010,05,05,16,35,12.30
2010,05,05,16,36,12.30
2010,05,05,16,37,12.30
2010,05,05,16,38,12.30
2010,05,05,16,39,12.30
2010,05,05,16,40,12.30
2010,05,05,16,41,12.30
2010,05,05,16,42,12.30
2010,05,05,16,43,12.30
2010,05,05,16,44,12.30
2010,05,05,16,45,12.20
2010,05,05,16,46,12.20
2010,05,05,16,47,12.20
2010,05,05,16,48,12.20
2010,05,05,16,49,12.20
2010,05,05,16,50,12.30
2010,05,05,16,51,12.30
2010,05,05,16,52,12.30
2010,05,05,16,53,12.30
2010,05,05,16,54,12.40
2010,05,05,16,55,12.40
2010,05,05,16,56,12.40
2010,05,05,16,57,12.40
2010,05,05,16,58,12.50
2010,05,05,16,59,12.50
2010,05,05,17,00,12.60
2010,05,05,17,01,12.60
2010,05,05,17,02,12.70
2010,05,05,17,03,12.80
2010,05,05,17,04,12.80
2010,05,05,17,05,12.80
2010,05,05,17,06,12.80
2010,05,05,17,07,12.80
2010,05,05,17,08,12.80
2010,05,05,17,09,12.80
2010,05,05,17,10,12.80
2010,05,05,17,11,12.80
2010,05,05,17,12,12.70
2010,05,05,17,13,12.60
2010,05,05,17,14,12.50
2010,05,05,17,15,12.30
2010,05,05,17,16,12.30
2010,05,05,17,17,12.30
2010,05,05,17,18,12.30
2010,05,05,17,19,12.40
2010,05,05,17,20,12.50
2010,05,05,17,21,12.60
2010,05,05,17,22,12.60
2010,05,05,17,23,12.60
2010,05,05,17,24,12.60
2010,05,05,17,25,12.50
2010,05,05,17,26,12.50
2010,05,05,17,27,12.40
2010,05,05,17,28,12.30
2010,05,05,17,29,12.20
2010,05,05,17,30,12.10
2010,05,05,17,31,12.10
2010,05,05,17,32,12.10
2010,05,05,17,33,12.10
2010,05,05,17,34,12.00
2010,05,05,17,35,12.00
2010,05,05,17,36,12.00
2010,05,05,17,37,12.00
2010,05,05,17,38,12.00
2010,05,05,17,39,12.00
2010,05,05,17,40,11.90
2010,05,05,17,41,11.90
2010,05,05,17,42,11.90
2010,05,05,17,43,11.90
2010,05,05,17,44,11.90
2010,05,05,17,45,11.90
2010,05,05,17,46,11.90
2010,05,05,17,47,12.00
2010,05,05,17,48,12.00
2010,05,05,17,49,12.10
2010,05,05,17,50,12.10
2010,05,05,17,51,12.10
2010,05,05,17,52,12.10
2010,05,05,17,53,12.10